Year,Month,Day,Hour,Minute,Value (Times are PST for temperature in C)
2018,08,07,00,00,17.60
2018,08,07,00,01,17.60
2018,08,07,00,02,17.60
2018,08,07,00,03,17.60
2018,08,07,00,04,17.60
2018,08,07,00,05,17.60
2018,08,07,00,06,17.60
2018,08,07,00,07,17.60
2018,08,07,00,08,17.60
2018,08,07,00,09,17.60
2018,08,07,00,10,17.60
2018,08,07,00,11,17.60
2018,08,07,00,12,17.60
2018,08,07,00,13,17.60
2018,08,07,00,14,17.60
2018,08,07,00,15,17.60
2018,08,07,00,16,17.50
2018,08,07,00,17,17.50
2018,08,07,00,18,17.50
2018,08,07,00,19,17.50
2018,08,07,00,20,17.50
2018,08,07,00,21,17.50
2018,08,07,00,22,17.50
2018,08,07,00,23,17.50
2018,08,07,00,24,17.50
2018,08,07,00,25,17.50
2018,08,07,00,26,17.50
2018,08,07,00,27,17.50
2018,08,07,00,28,17.50
2018,08,07,00,29,17.50
2018,08,07,00,30,17.50
2018,08,07,00,31,17.50
2018,08,07,00,32,17.50
2018,08,07,00,33,17.40
2018,08,07,00,34,17.40
2018,08,07,00,35,17.40
2018,08,07,00,36,17.40
2018,08,07,00,37,17.40
2018,08,07,00,38,17.40
2018,08,07,00,39,17.40
2018,08,07,00,40,17.30
2018,08,07,00,41,17.30
2018,08,07,00,42,17.30
2018,08,07,00,43,17.30
2018,08,07,00,44,17.30
2018,08,07,00,45,17.30
2018,08,07,00,46,17.20
2018,08,07,00,47,17.20
2018,08,07,00,48,17.20
2018,08,07,00,49,17.20
2018,08,07,00,50,17.10
2018,08,07,00,51,17.10
2018,08,07,00,52,17.10
2018,08,07,00,53,17.10
2018,08,07,00,54,17.10
2018,08,07,00,55,17.00
2018,08,07,00,56,17.00
2018,08,07,00,57,16.90
2018,08,07,00,58,16.90
2018,08,07,00,59,16.90
2018,08,07,01,00,16.90
2018,08,07,01,01,16.80
2018,08,07,01,02,16.80
2018,08,07,01,03,16.80
2018,08,07,01,04,16.80
2018,08,07,01,05,16.80
2018,08,07,01,06,16.70
2018,08,07,01,07,16.70
2018,08,07,01,08,16.70
2018,08,07,01,09,16.70
2018,08,07,01,10,16.70
2018,08,07,01,11,16.70
2018,08,07,01,12,16.70
2018,08,07,01,13,16.70
2018,08,07,01,14,16.70
2018,08,07,01,15,16.70
2018,08,07,01,16,16.70
2018,08,07,01,17,16.70
2018,08,07,01,18,16.70
2018,08,07,01,19,16.70
2018,08,07,01,20,16.70
2018,08,07,01,21,16.70
2018,08,07,01,22,16.70
2018,08,07,01,23,16.70
2018,08,07,01,24,16.70
2018,08,07,01,25,16.70
2018,08,07,01,26,16.60
2018,08,07,01,27,16.60
2018,08,07,01,28,16.60
2018,08,07,01,29,16.60
2018,08,07,01,30,16.60
2018,08,07,01,31,16.50
2018,08,07,01,32,16.50
2018,08,07,01,33,16.40
2018,08,07,01,34,16.40
2018,08,07,01,35,16.40
2018,08,07,01,36,16.30
2018,08,07,01,37,16.30
2018,08,07,01,38,16.30
2018,08,07,01,39,16.20
2018,08,07,01,40,16.20
2018,08,07,01,41,16.20
2018,08,07,01,42,16.20
2018,08,07,01,43,16.20
2018,08,07,01,44,16.20
2018,08,07,01,45,16.20
2018,08,07,01,46,16.20
2018,08,07,01,47,16.20
2018,08,07,01,48,16.20
2018,08,07,01,49,16.20
2018,08,07,01,50,16.20
2018,08,07,01,51,16.20
2018,08,07,01,52,16.20
2018,08,07,01,53,16.20
2018,08,07,01,54,16.20
2018,08,07,01,55,16.20
2018,08,07,01,56,16.10
2018,08,07,01,57,16.10
2018,08,07,01,58,16.10
2018,08,07,01,59,16.10
2018,08,07,02,00,16.10
2018,08,07,02,01,16.10
2018,08,07,02,02,16.00
2018,08,07,02,03,16.00
2018,08,07,02,04,16.00
2018,08,07,02,05,16.00
2018,08,07,02,06,16.00
2018,08,07,02,07,15.90
2018,08,07,02,08,15.90
2018,08,07,02,09,15.90
2018,08,07,02,10,15.90
2018,08,07,02,11,15.90
2018,08,07,02,12,15.90
2018,08,07,02,13,15.90
2018,08,07,02,14,15.90
2018,08,07,02,15,15.90
2018,08,07,02,16,15.90
2018,08,07,02,17,15.80
2018,08,07,02,18,15.80
2018,08,07,02,19,15.80
2018,08,07,02,20,15.80
2018,08,07,02,21,15.80
2018,08,07,02,22,15.80
2018,08,07,02,23,15.80
2018,08,07,02,24,15.80
2018,08,07,02,25,15.80
2018,08,07,02,26,15.70
2018,08,07,02,27,15.70
2018,08,07,02,28,15.70
2018,08,07,02,29,15.70
2018,08,07,02,30,15.70
2018,08,07,02,31,15.70
2018,08,07,02,32,15.70
2018,08,07,02,33,15.70
2018,08,07,02,34,15.70
2018,08,07,02,35,15.70
2018,08,07,02,36,15.70
2018,08,07,02,37,15.70
2018,08,07,02,38,15.70
2018,08,07,02,39,15.70
2018,08,07,02,40,15.70
2018,08,07,02,41,15.60
2018,08,07,02,42,15.60
2018,08,07,02,43,15.60
2018,08,07,02,44,15.60
2018,08,07,02,45,15.60
2018,08,07,02,46,15.60
2018,08,07,02,47,15.60
2018,08,07,02,48,15.60
2018,08,07,02,49,15.60
2018,08,07,02,50,15.60
2018,08,07,02,51,15.60
2018,08,07,02,52,15.60
2018,08,07,02,53,15.60
2018,08,07,02,54,15.60
2018,08,07,02,55,15.60
2018,08,07,02,56,15.60
2018,08,07,02,57,15.60
2018,08,07,02,58,15.60
2018,08,07,02,59,15.50
2018,08,07,03,00,15.50
2018,08,07,03,01,15.50
2018,08,07,03,02,15.50
2018,08,07,03,03,15.50
2018,08,07,03,04,15.50
2018,08,07,03,05,15.50
2018,08,07,03,06,15.50
2018,08,07,03,07,15.50
2018,08,07,03,08,15.50
2018,08,07,03,09,15.50
2018,08,07,03,10,15.50
2018,08,07,03,11,15.50
2018,08,07,03,12,15.50
2018,08,07,03,13,15.50
2018,08,07,03,14,15.50
2018,08,07,03,15,15.50
2018,08,07,03,16,15.50
2018,08,07,03,17,15.50
2018,08,07,03,18,15.50
2018,08,07,03,19,15.50
2018,08,07,03,20,15.60
2018,08,07,03,21,15.60
2018,08,07,03,22,15.60
2018,08,07,03,23,15.60
2018,08,07,03,24,15.60
2018,08,07,03,25,15.60
2018,08,07,03,26,15.60
2018,08,07,03,27,15.60
2018,08,07,03,28,15.60
2018,08,07,03,29,15.60
2018,08,07,03,30,15.60
2018,08,07,03,31,15.60
2018,08,07,03,32,15.60
2018,08,07,03,33,15.60
2018,08,07,03,34,15.60
2018,08,07,03,35,15.60
2018,08,07,03,36,15.50
2018,08,07,03,37,15.50
2018,08,07,03,38,15.40
2018,08,07,03,39,15.40
2018,08,07,03,40,15.30
2018,08,07,03,41,15.30
2018,08,07,03,42,15.30
2018,08,07,03,43,15.20
2018,08,07,03,44,15.20
2018,08,07,03,45,15.10
2018,08,07,03,46,15.10
2018,08,07,03,47,15.00
2018,08,07,03,48,14.90
2018,08,07,03,49,14.90
2018,08,07,03,50,14.80
2018,08,07,03,51,14.80
2018,08,07,03,52,14.80
2018,08,07,03,53,14.80
2018,08,07,03,54,14.80
2018,08,07,03,55,14.70
2018,08,07,03,56,14.70
2018,08,07,03,57,14.70
2018,08,07,03,58,14.70
2018,08,07,03,59,14.70
2018,08,07,04,00,14.70
2018,08,07,04,01,14.70
2018,08,07,04,02,14.70
2018,08,07,04,03,14.60
2018,08,07,04,04,14.60
2018,08,07,04,05,14.60
2018,08,07,04,06,14.70
2018,08,07,04,07,14.60
2018,08,07,04,08,14.70
2018,08,07,04,09,14.70
2018,08,07,04,10,14.70
2018,08,07,04,11,14.70
2018,08,07,04,12,14.70
2018,08,07,04,13,14.70
2018,08,07,04,14,14.70
2018,08,07,04,15,14.70
2018,08,07,04,16,14.70
2018,08,07,04,17,14.60
2018,08,07,04,18,14.60
2018,08,07,04,19,14.60
2018,08,07,04,20,14.60
2018,08,07,04,21,14.60
2018,08,07,04,22,14.60
2018,08,07,04,23,14.60
2018,08,07,04,24,14.60
2018,08,07,04,25,14.60
2018,08,07,04,26,14.60
2018,08,07,04,27,14.60
2018,08,07,04,28,14.70
2018,08,07,04,29,14.70
2018,08,07,04,30,14.70
2018,08,07,04,31,14.70
2018,08,07,04,32,14.80
2018,08,07,04,33,14.80
2018,08,07,04,34,14.80
2018,08,07,04,35,14.80
2018,08,07,04,36,14.80
2018,08,07,04,37,14.80
2018,08,07,04,38,14.80
2018,08,07,04,39,14.80
2018,08,07,04,40,14.80
2018,08,07,04,41,14.80
2018,08,07,04,42,14.80
2018,08,07,04,43,14.80
2018,08,07,04,44,14.70
2018,08,07,04,45,14.70
2018,08,07,04,46,14.70
2018,08,07,04,47,14.70
2018,08,07,04,48,14.70
2018,08,07,04,49,14.70
2018,08,07,04,50,14.70
2018,08,07,04,51,14.70
2018,08,07,04,52,14.70
2018,08,07,04,53,14.70
2018,08,07,04,54,14.70
2018,08,07,04,55,14.70
2018,08,07,04,56,14.80
2018,08,07,04,57,14.70
2018,08,07,04,58,14.70
2018,08,07,04,59,14.70
2018,08,07,05,00,14.70
2018,08,07,05,01,14.70
2018,08,07,05,02,14.60
2018,08,07,05,03,14.60
2018,08,07,05,04,14.60
2018,08,07,05,05,14.60
2018,08,07,05,06,14.60
2018,08,07,05,07,14.60
2018,08,07,05,08,14.60
2018,08,07,05,09,14.60
2018,08,07,05,10,14.60
2018,08,07,05,11,14.60
2018,08,07,05,12,14.60
2018,08,07,05,13,14.60
2018,08,07,05,14,14.60
2018,08,07,05,15,14.50
2018,08,07,05,16,14.50
2018,08,07,05,17,14.50
2018,08,07,05,18,14.40
2018,08,07,05,19,14.40
2018,08,07,05,20,14.40
2018,08,07,05,21,14.40
2018,08,07,05,22,14.40
2018,08,07,05,23,14.40
2018,08,07,05,24,14.40
2018,08,07,05,25,14.40
2018,08,07,05,26,14.30
2018,08,07,05,27,14.30
2018,08,07,05,28,14.30
2018,08,07,05,29,14.30
2018,08,07,05,30,14.30
2018,08,07,05,31,14.20
2018,08,07,05,32,14.20
2018,08,07,05,33,14.20
2018,08,07,05,34,14.20
2018,08,07,05,35,14.20
2018,08,07,05,36,14.20
2018,08,07,05,37,14.20
2018,08,07,05,38,14.20
2018,08,07,05,39,14.20
2018,08,07,05,40,14.20
2018,08,07,05,41,14.20
2018,08,07,05,42,14.20
2018,08,07,05,43,14.20
2018,08,07,05,44,14.20
2018,08,07,05,45,14.30
2018,08,07,05,46,14.30
2018,08,07,05,47,14.30
2018,08,07,05,48,14.30
2018,08,07,05,49,14.30
2018,08,07,05,50,14.30
2018,08,07,05,51,14.40
2018,08,07,05,52,14.40
2018,08,07,05,53,14.40
2018,08,07,05,54,14.40
2018,08,07,05,55,14.40
2018,08,07,05,56,14.40
2018,08,07,05,57,14.30
2018,08,07,05,58,14.30
2018,08,07,05,59,14.30
2018,08,07,06,00,14.30
2018,08,07,06,01,14.30
2018,08,07,06,02,14.30
2018,08,07,06,03,14.20
2018,08,07,06,04,14.20
2018,08,07,06,05,14.20
2018,08,07,06,06,14.20
2018,08,07,06,07,14.20
2018,08,07,06,08,14.20
2018,08,07,06,09,14.20
2018,08,07,06,10,14.10
2018,08,07,06,11,14.10
2018,08,07,06,12,14.10
2018,08,07,06,13,14.10
2018,08,07,06,14,14.20
2018,08,07,06,15,14.20
2018,08,07,06,16,14.20
2018,08,07,06,17,14.30
2018,08,07,06,18,14.30
2018,08,07,06,19,14.30
2018,08,07,06,20,14.40
2018,08,07,06,21,14.40
2018,08,07,06,22,14.40
2018,08,07,06,23,14.40
2018,08,07,06,24,14.40
2018,08,07,06,25,14.40
2018,08,07,06,26,14.40
2018,08,07,06,27,14.40
2018,08,07,06,28,14.40
2018,08,07,06,29,14.40
2018,08,07,06,30,14.50
2018,08,07,06,31,14.50
2018,08,07,06,32,14.50
2018,08,07,06,33,14.50
2018,08,07,06,34,14.50
2018,08,07,06,35,14.50
2018,08,07,06,36,14.50
2018,08,07,06,37,14.60
2018,08,07,06,38,14.60
2018,08,07,06,39,14.60
2018,08,07,06,40,14.50
2018,08,07,06,41,14.50
2018,08,07,06,42,14.50
2018,08,07,06,43,14.50
2018,08,07,06,44,14.50
2018,08,07,06,45,14.50
2018,08,07,06,46,14.50
2018,08,07,06,47,14.60
2018,08,07,06,48,14.60
2018,08,07,06,49,14.60
2018,08,07,06,50,14.60
2018,08,07,06,51,14.60
2018,08,07,06,52,14.60
2018,08,07,06,53,14.70
2018,08,07,06,54,14.70
2018,08,07,06,55,14.70
2018,08,07,06,56,14.70
2018,08,07,06,57,14.70
2018,08,07,06,58,14.80
2018,08,07,06,59,14.80
2018,08,07,07,00,14.80
2018,08,07,07,01,14.80
2018,08,07,07,02,14.90
2018,08,07,07,03,14.90
2018,08,07,07,04,14.90
2018,08,07,07,05,14.90
2018,08,07,07,06,15.00
2018,08,07,07,07,15.00
2018,08,07,07,08,15.10
2018,08,07,07,09,15.10
2018,08,07,07,10,15.20
2018,08,07,07,11,15.20
2018,08,07,07,12,15.30
2018,08,07,07,13,15.30
2018,08,07,07,14,15.40
2018,08,07,07,15,15.40
2018,08,07,07,16,15.40
2018,08,07,07,17,15.50
2018,08,07,07,18,15.50
2018,08,07,07,19,15.60
2018,08,07,07,20,15.60
2018,08,07,07,21,15.60
2018,08,07,07,22,15.60
2018,08,07,07,23,15.70
2018,08,07,07,24,15.70
2018,08,07,07,25,15.70
2018,08,07,07,26,15.70
2018,08,07,07,27,15.70
2018,08,07,07,28,15.80
2018,08,07,07,29,15.80
2018,08,07,07,30,15.80
2018,08,07,07,31,15.90
2018,08,07,07,32,15.90
2018,08,07,07,33,16.00
2018,08,07,07,34,16.00
2018,08,07,07,35,16.10
2018,08,07,07,36,16.10
2018,08,07,07,37,16.10
2018,08,07,07,38,16.20
2018,08,07,07,39,16.20
2018,08,07,07,40,16.30
2018,08,07,07,41,16.30
2018,08,07,07,42,16.30
2018,08,07,07,43,16.40
2018,08,07,07,44,16.40
2018,08,07,07,45,16.40
2018,08,07,07,46,16.50
2018,08,07,07,47,16.50
2018,08,07,07,48,16.60
2018,08,07,07,49,16.60
2018,08,07,07,50,16.70
2018,08,07,07,51,16.70
2018,08,07,07,52,16.80
2018,08,07,07,53,16.80
2018,08,07,07,54,16.90
2018,08,07,07,55,16.90
2018,08,07,07,56,17.00
2018,08,07,07,57,17.10
2018,08,07,07,58,17.20
2018,08,07,07,59,17.30
2018,08,07,08,00,17.30
2018,08,07,08,01,17.40
2018,08,07,08,02,17.50
2018,08,07,08,03,17.60
2018,08,07,08,04,17.70
2018,08,07,08,05,17.70
2018,08,07,08,06,17.80
2018,08,07,08,07,17.80
2018,08,07,08,08,17.90
2018,08,07,08,09,18.00
2018,08,07,08,10,18.10
2018,08,07,08,11,18.10
2018,08,07,08,12,18.20
2018,08,07,08,13,18.40
2018,08,07,08,14,18.50
2018,08,07,08,15,18.60
2018,08,07,08,16,18.70
2018,08,07,08,17,18.80
2018,08,07,08,18,18.90
2018,08,07,08,19,18.90
2018,08,07,08,20,19.00
2018,08,07,08,21,19.10
2018,08,07,08,22,19.10
2018,08,07,08,23,19.20
2018,08,07,08,24,19.30
2018,08,07,08,25,19.30
2018,08,07,08,26,19.40
2018,08,07,08,27,19.50
2018,08,07,08,28,19.60
2018,08,07,08,29,19.70
2018,08,07,08,30,19.80
2018,08,07,08,31,19.90
2018,08,07,08,32,19.90
2018,08,07,08,33,20.00
2018,08,07,08,34,20.10
2018,08,07,08,35,20.20
2018,08,07,08,36,20.20
2018,08,07,08,37,20.20
2018,08,07,08,38,20.20
2018,08,07,08,39,20.20
2018,08,07,08,40,20.20
2018,08,07,08,41,20.30
2018,08,07,08,42,20.30
2018,08,07,08,43,20.30
2018,08,07,08,44,20.30
2018,08,07,08,45,20.30
2018,08,07,08,46,20.30
2018,08,07,08,47,20.30
2018,08,07,08,48,20.40
2018,08,07,08,49,20.50
2018,08,07,08,50,20.50
2018,08,07,08,51,20.60
2018,08,07,08,52,20.60
2018,08,07,08,53,20.60
2018,08,07,08,54,20.70
2018,08,07,08,55,20.70
2018,08,07,08,56,20.70
2018,08,07,08,57,20.80
2018,08,07,08,58,20.80
2018,08,07,08,59,20.90
2018,08,07,09,00,21.00
2018,08,07,09,01,21.10
2018,08,07,09,02,21.20
2018,08,07,09,03,21.20
2018,08,07,09,04,21.20
2018,08,07,09,05,21.30
2018,08,07,09,06,21.30
2018,08,07,09,07,21.30
2018,08,07,09,08,21.40
2018,08,07,09,09,21.40
2018,08,07,09,10,21.40
2018,08,07,09,11,21.40
2018,08,07,09,12,21.40
2018,08,07,09,13,21.50
2018,08,07,09,14,21.50
2018,08,07,09,15,21.40
2018,08,07,09,16,21.30
2018,08,07,09,17,21.30
2018,08,07,09,18,21.20
2018,08,07,09,19,21.20
2018,08,07,09,20,21.20
2018,08,07,09,21,21.10
2018,08,07,09,22,21.00
2018,08,07,09,23,21.00
2018,08,07,09,24,20.90
2018,08,07,09,25,20.90
2018,08,07,09,26,20.90
2018,08,07,09,27,20.80
2018,08,07,09,28,20.80
2018,08,07,09,29,20.70
2018,08,07,09,30,20.70
2018,08,07,09,31,20.70
2018,08,07,09,32,20.70
2018,08,07,09,33,20.70
2018,08,07,09,34,20.80
2018,08,07,09,35,20.80
2018,08,07,09,36,20.90
2018,08,07,09,37,20.90
2018,08,07,09,38,21.00
2018,08,07,09,39,21.00
2018,08,07,09,40,21.00
2018,08,07,09,41,21.10
2018,08,07,09,42,21.10
2018,08,07,09,43,21.10
2018,08,07,09,44,21.10
2018,08,07,09,45,21.10
2018,08,07,09,46,21.00
2018,08,07,09,47,21.00
2018,08,07,09,48,20.90
2018,08,07,09,49,20.90
2018,08,07,09,50,20.90
2018,08,07,09,51,20.90
2018,08,07,09,52,20.90
2018,08,07,09,53,20.90
2018,08,07,09,54,20.90
2018,08,07,09,55,20.90
2018,08,07,09,56,20.90
2018,08,07,09,57,21.00
2018,08,07,09,58,21.00
2018,08,07,09,59,21.00
2018,08,07,10,00,21.00
2018,08,07,10,01,21.00
2018,08,07,10,02,21.00
2018,08,07,10,03,21.00
2018,08,07,10,04,21.00
2018,08,07,10,05,21.00
2018,08,07,10,06,20.90
2018,08,07,10,07,21.00
2018,08,07,10,08,21.00
2018,08,07,10,09,21.10
2018,08,07,10,10,21.20
2018,08,07,10,11,21.30
2018,08,07,10,12,21.40
2018,08,07,10,13,21.40
2018,08,07,10,14,21.50
2018,08,07,10,15,21.50
2018,08,07,10,16,21.50
2018,08,07,10,17,21.50
2018,08,07,10,18,21.50
2018,08,07,10,19,21.50
2018,08,07,10,20,21.60
2018,08,07,10,21,21.60
2018,08,07,10,22,21.70
2018,08,07,10,23,21.70
2018,08,07,10,24,21.80
2018,08,07,10,25,21.80
2018,08,07,10,26,21.90
2018,08,07,10,27,21.90
2018,08,07,10,28,21.90
2018,08,07,10,29,22.00
2018,08,07,10,30,22.00
2018,08,07,10,31,22.00
2018,08,07,10,32,22.10
2018,08,07,10,33,22.10
2018,08,07,10,34,22.20
2018,08,07,10,35,22.20
2018,08,07,10,36,22.30
2018,08,07,10,37,22.40
2018,08,07,10,38,22.50
2018,08,07,10,39,22.60
2018,08,07,10,40,22.70
2018,08,07,10,41,22.70
2018,08,07,10,42,22.70
2018,08,07,10,43,22.70
2018,08,07,10,44,22.70
2018,08,07,10,45,22.70
2018,08,07,10,46,22.70
2018,08,07,10,47,22.80
2018,08,07,10,48,22.80
2018,08,07,10,49,23.00
2018,08,07,10,50,23.10
2018,08,07,10,51,23.20
2018,08,07,10,52,23.20
2018,08,07,10,53,23.30
2018,08,07,10,54,23.30
2018,08,07,10,55,23.40
2018,08,07,10,56,23.40
2018,08,07,10,57,23.50
2018,08,07,10,58,23.50
2018,08,07,10,59,23.40
2018,08,07,11,00,23.30
2018,08,07,11,01,23.30
2018,08,07,11,02,23.40
2018,08,07,11,03,23.50
2018,08,07,11,04,23.50
2018,08,07,11,05,23.70
2018,08,07,11,06,23.80
2018,08,07,11,07,23.90
2018,08,07,11,08,24.00
2018,08,07,11,09,24.10
2018,08,07,11,10,24.10
2018,08,07,11,11,24.20
2018,08,07,11,12,24.20
2018,08,07,11,13,24.30
2018,08,07,11,14,24.30
2018,08,07,11,15,24.30
2018,08,07,11,16,24.40
2018,08,07,11,17,24.40
2018,08,07,11,18,24.40
2018,08,07,11,19,24.40
2018,08,07,11,20,24.30
2018,08,07,11,21,24.30
2018,08,07,11,22,24.40
2018,08,07,11,23,24.30
2018,08,07,11,24,24.30
2018,08,07,11,25,24.30
2018,08,07,11,26,24.30
2018,08,07,11,27,24.30
2018,08,07,11,28,24.30
2018,08,07,11,29,24.30
2018,08,07,11,30,24.30
2018,08,07,11,31,24.20
2018,08,07,11,32,24.10
2018,08,07,11,33,24.00
2018,08,07,11,34,24.00
2018,08,07,11,35,23.90
2018,08,07,11,36,23.90
2018,08,07,11,37,23.80
2018,08,07,11,38,23.80
2018,08,07,11,39,23.80
2018,08,07,11,40,23.80
2018,08,07,11,41,23.90
2018,08,07,11,42,23.90
2018,08,07,11,43,24.00
2018,08,07,11,44,24.00
2018,08,07,11,45,24.10
2018,08,07,11,46,24.10
2018,08,07,11,47,24.20
2018,08,07,11,48,24.10
2018,08,07,11,49,24.10
2018,08,07,11,50,24.20
2018,08,07,11,51,24.20
2018,08,07,11,52,24.20
2018,08,07,11,53,24.20
2018,08,07,11,54,24.30
2018,08,07,11,55,24.30
2018,08,07,11,56,24.30
2018,08,07,11,57,24.40
2018,08,07,11,58,24.40
2018,08,07,11,59,24.50
2018,08,07,12,00,24.60
2018,08,07,12,01,24.70
2018,08,07,12,02,24.70
2018,08,07,12,03,24.80
2018,08,07,12,04,24.90
2018,08,07,12,05,25.00
2018,08,07,12,06,25.00
2018,08,07,12,07,25.10
2018,08,07,12,08,25.10
2018,08,07,12,09,25.20
2018,08,07,12,10,25.20
2018,08,07,12,11,25.20
2018,08,07,12,12,25.10
2018,08,07,12,13,25.10
2018,08,07,12,14,25.10
2018,08,07,12,15,25.10
2018,08,07,12,16,25.10
2018,08,07,12,17,25.20
2018,08,07,12,18,25.30
2018,08,07,12,19,25.30
2018,08,07,12,20,25.40
2018,08,07,12,21,25.40
2018,08,07,12,22,25.40
2018,08,07,12,23,25.40
2018,08,07,12,24,25.40
2018,08,07,12,25,25.50
2018,08,07,12,26,25.60
2018,08,07,12,27,25.70
2018,08,07,12,28,25.80
2018,08,07,12,29,25.80
2018,08,07,12,30,25.80
2018,08,07,12,31,25.80
2018,08,07,12,32,25.90
2018,08,07,12,33,26.00
2018,08,07,12,34,26.10
2018,08,07,12,35,26.20
2018,08,07,12,36,26.20
2018,08,07,12,37,26.20
2018,08,07,12,38,26.20
2018,08,07,12,39,26.20
2018,08,07,12,40,26.20
2018,08,07,12,41,26.20
2018,08,07,12,42,26.20
2018,08,07,12,43,26.10
2018,08,07,12,44,26.10
2018,08,07,12,45,26.20
2018,08,07,12,46,26.20
2018,08,07,12,47,26.30
2018,08,07,12,48,26.30
2018,08,07,12,49,26.30
2018,08,07,12,50,26.40
2018,08,07,12,51,26.40
2018,08,07,12,52,26.40
2018,08,07,12,53,26.50
2018,08,07,12,54,26.50
2018,08,07,12,55,26.50
2018,08,07,12,56,26.40
2018,08,07,12,57,26.30
2018,08,07,12,58,26.30
2018,08,07,12,59,26.10
2018,08,07,13,00,25.90
2018,08,07,13,01,25.70
2018,08,07,13,02,25.60
2018,08,07,13,03,25.60
2018,08,07,13,04,25.60
2018,08,07,13,05,25.70
2018,08,07,13,06,25.70
2018,08,07,13,07,25.70
2018,08,07,13,08,25.80
2018,08,07,13,09,25.80
2018,08,07,13,10,25.80
2018,08,07,13,11,25.70
2018,08,07,13,12,25.60
2018,08,07,13,13,25.50
2018,08,07,13,14,25.50
2018,08,07,13,15,25.60
2018,08,07,13,16,25.50
2018,08,07,13,17,25.60
2018,08,07,13,18,25.60
2018,08,07,13,19,25.70
2018,08,07,13,20,25.70
2018,08,07,13,21,25.80
2018,08,07,13,22,25.80
2018,08,07,13,23,25.80
2018,08,07,13,24,25.80
2018,08,07,13,25,25.90
2018,08,07,13,26,25.90
2018,08,07,13,27,25.80
2018,08,07,13,28,25.80
2018,08,07,13,29,25.80
2018,08,07,13,30,25.90
2018,08,07,13,31,26.00
2018,08,07,13,32,26.10
2018,08,07,13,33,26.20
2018,08,07,13,34,26.20
2018,08,07,13,35,26.10
2018,08,07,13,36,26.10
2018,08,07,13,37,26.10
2018,08,07,13,38,26.20
2018,08,07,13,39,26.20
2018,08,07,13,40,26.20
2018,08,07,13,41,26.00
2018,08,07,13,42,25.70
2018,08,07,13,43,25.50
2018,08,07,13,44,25.40
2018,08,07,13,45,25.40
2018,08,07,13,46,25.40
2018,08,07,13,47,25.50
2018,08,07,13,48,25.60
2018,08,07,13,49,25.70
2018,08,07,13,50,25.80
2018,08,07,13,51,25.90
2018,08,07,13,52,25.90
2018,08,07,13,53,25.80
2018,08,07,13,54,25.80
2018,08,07,13,55,25.80
2018,08,07,13,56,25.80
2018,08,07,13,57,25.90
2018,08,07,13,58,25.90
2018,08,07,13,59,25.80
2018,08,07,14,00,25.80
2018,08,07,14,01,25.70
2018,08,07,14,02,25.70
2018,08,07,14,03,25.70
2018,08,07,14,04,25.70
2018,08,07,14,05,25.70
2018,08,07,14,06,25.70
2018,08,07,14,07,25.70
2018,08,07,14,08,25.70
2018,08,07,14,09,25.70
2018,08,07,14,10,25.70
2018,08,07,14,11,25.70
2018,08,07,14,12,25.70
2018,08,07,14,13,25.70
2018,08,07,14,14,25.60
2018,08,07,14,15,25.50
2018,08,07,14,16,25.40
2018,08,07,14,17,25.30
2018,08,07,14,18,25.20
2018,08,07,14,19,25.20
2018,08,07,14,20,25.10
2018,08,07,14,21,25.10
2018,08,07,14,22,25.20
2018,08,07,14,23,25.20
2018,08,07,14,24,25.20
2018,08,07,14,25,25.20
2018,08,07,14,26,25.20
2018,08,07,14,27,25.30
2018,08,07,14,28,25.30
2018,08,07,14,29,25.40
2018,08,07,14,30,25.30
2018,08,07,14,31,25.30
2018,08,07,14,32,25.20
2018,08,07,14,33,25.10
2018,08,07,14,34,25.10
2018,08,07,14,35,25.10
2018,08,07,14,36,25.10
2018,08,07,14,37,25.20
2018,08,07,14,38,25.30
2018,08,07,14,39,25.40
2018,08,07,14,40,25.50
2018,08,07,14,41,25.60
2018,08,07,14,42,25.70
2018,08,07,14,43,25.70
2018,08,07,14,44,25.70
2018,08,07,14,45,25.60
2018,08,07,14,46,25.60
2018,08,07,14,47,25.50
2018,08,07,14,48,25.50
2018,08,07,14,49,25.50
2018,08,07,14,50,25.50
2018,08,07,14,51,25.50
2018,08,07,14,52,25.60
2018,08,07,14,53,25.80
2018,08,07,14,54,25.80
2018,08,07,14,55,25.90
2018,08,07,14,56,25.90
2018,08,07,14,57,25.90
2018,08,07,14,58,25.90
2018,08,07,14,59,26.00
2018,08,07,15,00,26.00
2018,08,07,15,01,26.10
2018,08,07,15,02,26.10
2018,08,07,15,03,26.10
2018,08,07,15,04,26.20
2018,08,07,15,05,26.20
2018,08,07,15,06,26.20
2018,08,07,15,07,26.20
2018,08,07,15,08,26.10
2018,08,07,15,09,26.20
2018,08,07,15,10,26.20
2018,08,07,15,11,26.30
2018,08,07,15,12,26.30
2018,08,07,15,13,26.30
2018,08,07,15,14,26.30
2018,08,07,15,15,26.40
2018,08,07,15,16,26.50
2018,08,07,15,17,26.50
2018,08,07,15,18,26.50
2018,08,07,15,19,26.50
2018,08,07,15,20,26.40
2018,08,07,15,21,26.40
2018,08,07,15,22,26.40
2018,08,07,15,23,26.50
2018,08,07,15,24,26.40
2018,08,07,15,25,26.40
2018,08,07,15,26,26.40
2018,08,07,15,27,26.40
2018,08,07,15,28,26.50
2018,08,07,15,29,26.50
2018,08,07,15,30,26.60
2018,08,07,15,31,26.60
2018,08,07,15,32,26.60
2018,08,07,15,33,26.70
2018,08,07,15,34,26.70
2018,08,07,15,35,26.80
2018,08,07,15,36,26.80
2018,08,07,15,37,26.80
2018,08,07,15,38,26.80
2018,08,07,15,39,26.90
2018,08,07,15,40,26.90
2018,08,07,15,41,26.90
2018,08,07,15,42,27.00
2018,08,07,15,43,27.00
2018,08,07,15,44,27.10
2018,08,07,15,45,27.10
2018,08,07,15,46,27.10
2018,08,07,15,47,27.10
2018,08,07,15,48,27.10
2018,08,07,15,49,27.10
2018,08,07,15,50,27.10
2018,08,07,15,51,27.00
2018,08,07,15,52,27.00
2018,08,07,15,53,27.10
2018,08,07,15,54,27.10
2018,08,07,15,55,27.10
2018,08,07,15,56,27.10
2018,08,07,15,57,27.10
2018,08,07,15,58,27.10
2018,08,07,15,59,27.00
2018,08,07,16,00,27.10
2018,08,07,16,01,27.10
2018,08,07,16,02,27.10
2018,08,07,16,03,27.10
2018,08,07,16,04,27.20
2018,08,07,16,05,27.20
2018,08,07,16,06,27.20
2018,08,07,16,07,27.30
2018,08,07,16,08,27.30
2018,08,07,16,09,27.40
2018,08,07,16,10,27.40
2018,08,07,16,11,27.50
2018,08,07,16,12,27.60
2018,08,07,16,13,27.60
2018,08,07,16,14,27.60
2018,08,07,16,15,27.70
2018,08,07,16,16,27.70
2018,08,07,16,17,27.80
2018,08,07,16,18,27.80
2018,08,07,16,19,27.90
2018,08,07,16,20,27.90
2018,08,07,16,21,28.00
2018,08,07,16,22,28.00
2018,08,07,16,23,28.00
2018,08,07,16,24,28.00
2018,08,07,16,25,28.10
2018,08,07,16,26,28.10
2018,08,07,16,27,28.10
2018,08,07,16,28,28.10
2018,08,07,16,29,28.10
2018,08,07,16,30,28.10
2018,08,07,16,31,28.10
2018,08,07,16,32,28.20
2018,08,07,16,33,28.20
2018,08,07,16,34,28.20
2018,08,07,16,35,28.20
2018,08,07,16,36,28.20
2018,08,07,16,37,28.20
2018,08,07,16,38,28.10
2018,08,07,16,39,28.00
2018,08,07,16,40,27.90
2018,08,07,16,41,27.80
2018,08,07,16,42,27.70
2018,08,07,16,43,27.60
2018,08,07,16,44,27.60
2018,08,07,16,45,27.60
2018,08,07,16,46,27.60
2018,08,07,16,47,27.50
2018,08,07,16,48,27.50
2018,08,07,16,49,27.40
2018,08,07,16,50,27.40
2018,08,07,16,51,27.40
2018,08,07,16,52,27.50
2018,08,07,16,53,27.40
2018,08,07,16,54,27.50
2018,08,07,16,55,27.50
2018,08,07,16,56,27.60
2018,08,07,16,57,27.60
2018,08,07,16,58,27.60
2018,08,07,16,59,27.60
2018,08,07,17,00,27.60
2018,08,07,17,01,27.60
2018,08,07,17,02,27.60
2018,08,07,17,03,27.70
2018,08,07,17,04,27.70
2018,08,07,17,05,27.70
2018,08,07,17,06,27.80
2018,08,07,17,07,27.80
2018,08,07,17,08,27.80
2018,08,07,17,09,27.80
2018,08,07,17,10,27.80
2018,08,07,17,11,27.80
2018,08,07,17,12,27.80
2018,08,07,17,13,27.80
2018,08,07,17,14,27.80
2018,08,07,17,15,27.80
2018,08,07,17,16,27.80
2018,08,07,17,17,27.80
2018,08,07,17,18,27.80
2018,08,07,17,19,27.90